Location: Carbonear
(47.7333°N, 53.2500°W)
Time: 21:50:43
(UTC+00:00)

STRAND 1 - Pass Details

Date: 06 December 2022
Orbit: 768 x 779 km, 98.4° (Epoch: 01 February)

Event Time Altitude Azimuth Distance (km) Brightness Sun altitude
Rises 08:24:43 0° 133° (SE) 3,243 ? -26.2°
Reaches altitude 10° 08:27:15 10° 123° (ESE) 2,318 ? -25.8°
Maximum altitude 08:31:39 30° 64° (ENE) 1,368 ? -25.1°
Drops below altitude 10° 08:36:02 10° 5° (N) 2,325 ? -24.3°
Enters shadow 08:38:13 - 356° (N) 3,114 ? -24.0°
